Laupahoehoe, HI (96764)

2:14 PM HST on August 03, 2015 (GMT -1000)
Laupahoehoe | | Change Station
CLOSE
Current Station
Personal Weather Station
Location: Laupāhoehoe, HI
Elevation: 925 ft
Nearby Weather Stations
Active Advisory: High Surf Advisory

Elev 925 ft 19.98 °N, 155.24 °W | Updated 23 seconds ago

Mostly Cloudy
Mostly Cloudy
74.5 °F
Feels Like 71 °F
N
6.0
Wind Variable Wind from NNW
Gusts 7.0 mph

Today
High -- | Low -- °F
--% Chance of Precip.
Yesterday
High -- | Low -- °F
Precip. -- in
5:57 AM 6:56 PM
Waning Gibbous, 83% visible
Pressure 29.85 in
Visibility 10.0 miles
Clouds Scattered Clouds 1700 ft
Mostly Cloudy 6500 ft
Mostly Cloudy 9000 ft
Heat Index 71 °F
Dew Point 74 °F
Humidity 98%
Rainfall 3.79 in
Snow Depth Not available.
UV 1.6 out of 12
Pollen Not available.
Air Quality Not available.
Flu Activity Not available.
METAR PHTO 032353Z 36007KT 10SM SCT017 BKN065 BKN090 29/24 A2985 RMK AO2 SLP108 60003 T02890244 10289 20239 58015

More Conditions Fewer Conditions

Pressure 29.85 in
Visibility 10.0 miles
Clouds Scattered Clouds 1700 ft
Mostly Cloudy 6500 ft
Mostly Cloudy 9000 ft
Heat Index 71 °F
Dew Point 74 °F
Humidity 98%
Rainfall 3.79 in
Snow Depth Not available.
UV 1.6 out of 12
Pollen Not available.
Air Quality Not available.
Flu Activity Not available.
METAR PHTO 032353Z 36007KT 10SM SCT017 BKN065 BKN090 29/24 A2985 RMK AO2 SLP108 60003 T02890244 10289 20239 58015

More Conditions Fewer Conditions

10-Day Weather Forecast

×

Almanac

Astronomy

Aug. 03, 2015 Rise Set
Actual Time
Civil Twilight
Nautical Twilight
Astronomical Twilight
Moon
Length of Visible Light
Length of Day
Tomorrow will be .
, % of the Moon is Illuminated

Today's Extremes

State Highs State Lows

Community

WunderPhotos

Upload Photos

1,843,788 photos uploaded!

WunderBlogs® & News

Nearby

Air Quality

  Air Quality AQ Index Pollutant
Not available.

Snow Depth

Station Depth Elevation

Earthquake Activity

City Distance Mag. Time & Date
Minimum magnitude displayed is 2.5.

Coastal Water Temperatures

Place Temperature

Stations

Nearby Weather Stations

Station Location Temp. Windchill Dew Point Humidity Wind Precip. Elev Updated Type
                   
High Surf Advisory
Statement as of 3:37 AM HST on August 03, 2015

... High surf advisory remains in effect until 6 PM HST Tuesday...

A high surf advisory remains in effect until 6 PM HST Tuesday.

* Surf... along east facing shores... 10 to 14 feet through Tuesday.

* Timing... surf will continue to build today... then peaking tonight.

* Impacts... moderate... expect strong breaking waves... shore
break... and strong longshore and rip currents making swimming
difficult and dangerous.

Precautionary/preparedness actions... beachgoers... swimmers... and
surfers should heed all advice given by ocean safety officials
and exercise caution. Boaters should expect recreational surfers
and body boarders utilizing Harbor channels to access surfing
areas.



Reynes